Weather History for Vidalia, GA

Change the Weather History Date:

Sunday, November 4, 2012

  Actual Average (KAZE) Record (KAZE)
Temperature  
Mean Temperature 73 °F -  
Max Temperature 87 °F 84 °F 95 °F (2013)
Min Temperature 59 °F 54 °F 40 °F (2014)
Cooling Degree Days 8    
Growing Degree Days 23 (Base 50)    
Moisture  
Dew Point 57 °F    
Average Humidity 66    
Maximum Humidity 100    
Minimum Humidity 29    
Precipitation  
Precipitation 0.00 in - - ()
Sea Level Pressure  
Sea Level Pressure 30.00 in    
Wind  
Wind Speed 5 mph (WSW)    
Max Wind Speed 15 mph    
Max Gust Speed 22 mph    
Visibility 10 miles    
Events Rain , Thunderstorm    
Averages and records for this station are not official NWS values.
T = Trace of Precipitation, MM = Missing Value Source: NWS Daily Summary

Daily Weather History Graph

Daily Weather History Graph

Search for Another Location

Airport:

Trip Planner

Search our weather history database for the weather conditions in past years. The results will help you decide how hot, cold, wet, or windy it might be!

Date:

Astronomy

Nov. 04, 2012 Rise Set
Actual Time 6:49 AM EST 5:36 PM EST
Civil Twilight 6:23 AM EST 6:01 PM EST
Nautical Twilight 5:54 AM EST 6:30 PM EST
Astronomical Twilight 5:25 AM EST 6:59 PM EST
Moon 10:16 PM EST (11/4) 11:28 AM EST (11/4)
Length of Visible Light 11h 37m
Length of Day
10h 47m
Waning Gibbous, 72% of the Moon is Illuminated
Nov 4
Waning Gibbous
Nov 6
Last Quarter
Nov 13
New
Nov 20
First Quarter
Nov 28
Full

Hourly Weather History & Observations

Time (EST) Temp. Heat Index Dew Point Humidity Pressure Visibility Wind Dir Wind Speed Gust Speed Precip Events Conditions
12:15 AM 62.6 °F - 57.2 °F 82% 30.04 in 10.0 mi Calm Calm - N/A   Clear
12:35 AM 64.4 °F - 57.2 °F 77% 30.04 in 10.0 mi SSW 4.6 mph - N/A   Clear
12:55 AM 62.6 °F - 57.2 °F 82% 30.04 in 10.0 mi SSW 3.5 mph - N/A   Clear
1:15 AM 62.6 °F - 57.2 °F 82% 30.04 in 10.0 mi SSW 4.6 mph - N/A   Clear
1:35 AM 62.6 °F - 57.2 °F 82% 30.04 in 10.0 mi SSW 3.5 mph - N/A   Clear
1:55 AM 62.6 °F - 57.2 °F 82% 30.04 in 10.0 mi SSW 3.5 mph - N/A   Clear
1:15 AM 60.8 °F - 57.2 °F 88% 30.04 in 10.0 mi SW 4.6 mph - N/A   Clear
1:35 AM 60.8 °F - 57.2 °F 88% 30.04 in 10.0 mi SW 5.8 mph - N/A   Clear
1:55 AM 60.8 °F - 57.2 °F 88% 30.04 in 10.0 mi SW 4.6 mph - N/A   Clear
2:15 AM 60.8 °F - 59.0 °F 94% 30.04 in 10.0 mi WSW 4.6 mph - N/A   Clear
2:55 AM 60.8 °F - 59.0 °F 94% 30.03 in 10.0 mi WSW 3.5 mph - N/A   Clear
3:15 AM 60.8 °F - 59.0 °F 94% 30.03 in 10.0 mi WSW 3.5 mph - N/A   Clear
3:35 AM 60.8 °F - 59.0 °F 94% 30.03 in 10.0 mi WSW 4.6 mph - N/A   Clear
3:55 AM 60.8 °F - 59.0 °F 94% 30.03 in 10.0 mi WSW 5.8 mph - N/A   Clear
4:15 AM 60.8 °F - 59.0 °F 94% 30.03 in 10.0 mi WSW 3.5 mph - N/A   Clear
4:55 AM 60.8 °F - 59.0 °F 94% 30.04 in 10.0 mi SW 5.8 mph - N/A   Clear
5:15 AM 60.8 °F - 59.0 °F 94% 30.03 in 10.0 mi SW 4.6 mph - N/A   Clear
5:35 AM 60.8 °F - 59.0 °F 94% 30.04 in 10.0 mi SW 4.6 mph - N/A   Clear
5:55 AM 59.0 °F - 59.0 °F 100% 30.04 in 10.0 mi SW 4.6 mph - N/A   Clear
6:15 AM 59.0 °F - 59.0 °F 100% 30.04 in 7.0 mi SW 4.6 mph - N/A   Clear
6:35 AM 60.8 °F - 59.0 °F 94% 30.04 in 7.0 mi SW 4.6 mph - N/A   Clear
6:55 AM 59.0 °F - 59.0 °F 100% 30.04 in 5.0 mi SW 4.6 mph - N/A   Clear
7:15 AM 60.8 °F - 59.0 °F 94% 30.05 in 7.0 mi WSW 3.5 mph - N/A   Clear
7:35 AM 62.6 °F - 60.8 °F 94% 30.05 in 7.0 mi SW 3.5 mph - N/A   Clear
7:55 AM 62.6 °F - 60.8 °F 94% 30.05 in 10.0 mi SW 4.6 mph - N/A   Clear
8:15 AM 64.4 °F - 62.6 °F 94% 30.05 in 10.0 mi WSW 5.8 mph - N/A   Clear
8:35 AM 68.0 °F - 62.6 °F 83% 30.05 in 10.0 mi SW 5.8 mph - N/A   Clear
8:55 AM 69.8 °F - 62.6 °F 78% 30.05 in 10.0 mi WSW 5.8 mph - N/A   Clear
9:15 AM 73.4 °F - 62.6 °F 69% 30.04 in 10.0 mi WSW 5.8 mph - N/A   Clear
9:35 AM 75.2 °F - 62.6 °F 65% 30.04 in 10.0 mi WSW 6.9 mph - N/A   Clear
9:55 AM 77.0 °F - 60.8 °F 57% 30.04 in 10.0 mi West 5.8 mph - N/A   Clear
10:15 AM 78.8 °F - 60.8 °F 54% 30.04 in 10.0 mi SW 6.9 mph - N/A   Clear
10:35 AM 80.6 °F 81.5 °F 60.8 °F 51% 30.03 in 10.0 mi WSW 8.1 mph - N/A   Clear
11:15 AM 80.6 °F 81.1 °F 59.0 °F 48% 30.02 in 10.0 mi WNW 8.1 mph - N/A   Clear
11:55 AM 84.2 °F 83.0 °F 55.4 °F 37% 30.00 in 10.0 mi WSW 11.5 mph 19.6 mph N/A   Clear
12:15 PM 84.2 °F 83.0 °F 55.4 °F 37% 29.99 in 10.0 mi West 9.2 mph 17.3 mph N/A   Clear
12:55 PM 86.0 °F 84.5 °F 55.4 °F 35% 29.97 in 10.0 mi WSW 9.2 mph 16.1 mph N/A   Clear
1:15 PM 86.0 °F 84.5 °F 55.4 °F 35% 29.96 in 10.0 mi WSW 11.5 mph 21.9 mph N/A   Scattered Clouds
1:55 PM 87.8 °F - 51.8 °F 29% 29.94 in 10.0 mi WSW 13.8 mph 19.6 mph N/A   Scattered Clouds
2:15 PM 87.8 °F - 51.8 °F 29% 29.94 in 10.0 mi SW 15.0 mph - N/A   Scattered Clouds
2:55 PM 86.0 °F - 50.0 °F 29% 29.93 in 10.0 mi WSW 12.7 mph 19.6 mph N/A   Clear
3:15 PM 86.0 °F - 50.0 °F 29% 29.93 in 10.0 mi WSW 9.2 mph 19.6 mph N/A   Scattered Clouds
3:35 PM 84.2 °F - 50.0 °F 30% 29.92 in 10.0 mi West 6.9 mph 19.6 mph N/A   Scattered Clouds
3:55 PM 82.4 °F - 51.8 °F 35% 29.94 in 10.0 mi WNW 10.4 mph - N/A Rain Light Rain
4:15 PM 80.6 °F 80.3 °F 53.6 °F 39% 29.93 in 10.0 mi West 9.2 mph - N/A   Mostly Cloudy
4:35 PM 80.6 °F - 51.8 °F 37% 29.93 in 10.0 mi WNW 6.9 mph - N/A   Scattered Clouds
4:55 PM 78.8 °F - 53.6 °F 42% 29.93 in 10.0 mi West 4.6 mph - N/A   Scattered Clouds
5:15 PM 77.0 °F - 53.6 °F 44% 29.93 in 10.0 mi West 3.5 mph - N/A   Scattered Clouds
5:35 PM 77.0 °F - 53.6 °F 44% 29.94 in 10.0 mi WNW 6.9 mph - N/A Thunderstorm Scattered Clouds
5:55 PM 77.0 °F - 53.6 °F 44% 29.94 in 10.0 mi West 3.5 mph - N/A   Clear
6:15 PM 75.2 °F - 53.6 °F 47% 29.94 in 10.0 mi Calm Calm - N/A   Mostly Cloudy
6:35 PM 73.4 °F - 55.4 °F 53% 29.94 in 10.0 mi Calm Calm - N/A   Scattered Clouds
6:55 PM 73.4 °F - 55.4 °F 53% 29.95 in 10.0 mi Calm Calm - N/A   Clear
7:15 PM 73.4 °F - 55.4 °F 53% 29.94 in 10.0 mi WSW 3.5 mph - N/A   Clear
7:35 PM 73.4 °F - 55.4 °F 53% 29.94 in 10.0 mi Calm Calm - N/A   Clear
7:55 PM 71.6 °F - 55.4 °F 57% 29.94 in 10.0 mi Calm Calm - N/A   Clear
8:15 PM 71.6 °F - 55.4 °F 57% 29.95 in 10.0 mi Calm Calm - N/A   Clear
8:55 PM 73.4 °F - 55.4 °F 53% 29.96 in 10.0 mi NNW 4.6 mph - N/A   Clear
9:15 PM 71.6 °F - 55.4 °F 57% 29.96 in 10.0 mi NW 4.6 mph - N/A   Clear
9:35 PM 71.6 °F - 55.4 °F 57% 29.96 in 10.0 mi NW 4.6 mph - N/A   Clear
9:55 PM 71.6 °F - 55.4 °F 57% 29.96 in 10.0 mi NW 3.5 mph - N/A   Scattered Clouds
10:15 PM 71.6 °F - 55.4 °F 57% 29.97 in 10.0 mi WNW 3.5 mph - N/A   Clear
10:35 PM 69.8 °F - 55.4 °F 60% 29.96 in 10.0 mi NW 6.9 mph - N/A   Clear
10:55 PM 69.8 °F - 55.4 °F 60% 29.96 in 10.0 mi NW 9.2 mph 16.1 mph N/A   Clear